Simultaneous Nadir Overpasses (SNOs) Predictions

Prediction of SNOs between NOAA-19 and NPP Satellite Orbit:

Table of predicted SNOs for the next 14.0 days since TLE Epoch: 3/6/2021
Index Date (NOAA-19) Time (NOAA-19) Lat,Lon (NOAA-19) SZA (NOAA-19 ) Date (NPP) Time (NPP) Lat,Lon (NPP) SZA (NPP ) Distance(km) Time Diff (sec)
1 03/13/2021 17:27:05 78.22,-111.77 82.63 03/13/2021 17:28:10 78.27,-108.25 82.28 79.92 65
2 03/13/2021 18:18:01 -78.56, 57.65 97.32 03/13/2021 18:19:01 -78.53, 57.58 97.37 3.81 60
3 03/13/2021 19:08:57 78.53,-135.30 82.66 03/13/2021 19:09:47 78.55,-135.23 82.65 2.93 50
4 03/13/2021 20:00:02 -78.54, 32.01 97.36 03/13/2021 20:00:32 -78.57, 31.95 97.34 3.67 30
5 03/13/2021 20:50:57 78.54,-160.70 82.63 03/13/2021 20:51:17 78.55,-160.63 82.63 2.13 20
6 03/13/2021 21:42:02 -78.55, 6.61 97.38 03/13/2021 21:42:02 -78.57, 6.55 97.36 2.66 0
7 03/13/2021 22:32:57 78.56, 173.90 82.61 03/13/2021 22:32:47 78.56, 173.97 82.61 1.70 10
8 03/13/2021 23:24:02 -78.57, -18.78 97.41 03/13/2021 23:23:32 -78.58, -18.85 97.38 1.82 30
9 03/14/2021 00:14:57 78.57, 148.50 82.58 03/14/2021 00:14:17 78.56, 148.57 82.58 1.91 40
10 03/14/2021 01:06:02 -78.58, -44.18 97.43 03/14/2021 01:05:02 -78.58, -44.25 97.40 1.47 60
11 03/14/2021 01:56:57 78.58, 123.10 82.56 03/14/2021 01:55:47 78.57, 123.17 82.56 2.60 70



Historial Predications of SNOs between NOAA-19 and NPP
